map of VAA home
Great Circle Mapper logo
VAA - Airport
Location
City:  Vaasa, Finland
ICAO / IATA:EFVA / VAA

Details
Type:Airport (Aerodrome, Airfield)
Use:Public/Civil, International (customs port of entry)
Latitude:6303'02"N (63.050650)
Longitude:2145'44"E (21.762175)
Datum:WGS 1984
Elevation:19 ft (6 m)
Runways:1
Longest:8727 × 157 ft (2660 × 48 m), paved

Time
Time Zone:UTC+2 (DST+3)
Local Time:

Weather
METAR:EFVA 231450Z AUTO 03010KT 360V060 CAVOK 06/M11 Q1035
TAF:EFVA 231427Z 2315/2415 02013KT CAVOK
BECMG 2316/2318 01003KT

Related Locations
Nearby:
Farthest:NZWD: 11166 mi / 17971 km
McMurdo Station [Williams Field], Ross Island, AQ

Find:

   beyond  
but within

Other Information
Maps:
NOTAMs:
Links:
Sources:

  
flag of Finland   

Sectional Chart

Flight Planning
at skyvector.com

Satellite Image

Google Maps Satellite View

 

Copyright © 2004-2014 Karl L. Swartz. All rights reserved.
The Great Circle Mapper name and logo are trademarks of the Great Circle Mapper.
All other trademarks mentioned herein belong to their respective owners.
Please see credits for attibutions and further copyright information.

  Follow gcmap on Facebook Follow gcmap on Twitter

hCard Microformat

Geo Microformat